Overview Statistics Trail Chart Weather Telemetry Raw packets
 

This is the latest recevied weather packets stored in our database for station/object IZ2WYA-13. If no packets are shown the sender has not sent any weather packets the latest 10 day(s).

<< 9 10 11 12 13 14 15 >>
Time Temp. Humidity Pressure Rain* Wind** Luminosity Snow
1788085029 25° C 57% 1018.1 hPa - - - -
1788083227 24.44° C 57% 1018.5 hPa - - - -
1788081426 24.44° C 58% 1019 hPa - - - -
1788079625 23.89° C 58% 1019.1 hPa - - - -
1788077823 23.33° C 59% 1019.2 hPa - - - -
1788076022 23.33° C 60% 1019.3 hPa - - - -
1788074221 22.78° C 61% 1019.4 hPa - - - -
1788072420 22.22° C 60% 1019.4 hPa - - - -
1788070618 22.22° C 62% 1019.5 hPa - - - -
1788068817 21.67° C 63% 1019.5 hPa - - - -
1788067016 21.67° C 61% 1019.3 hPa - - - -
1788065215 21.67° C 63% 1019.1 hPa - - - -
1788063414 21.67° C 61% 1018.9 hPa - - - -
1788061612 22.22° C 61% 1018.9 hPa - - - -
1788059811 22.22° C 61% 1018.8 hPa - - - -
1788058010 22.22° C 61% 1018.8 hPa - - - -
1788056209 22.78° C 60% 1018.6 hPa - - - -
1788054407 22.78° C 59% 1018.7 hPa - - - -
1788052606 22.78° C 59% 1018.5 hPa - - - -
1788050805 23.33° C 58% 1018.3 hPa - - - -
1788049004 23.33° C 57% 1018.3 hPa - - - -
1788047202 23.89° C 56% 1018.2 hPa - - - -
1788045401 23.89° C 56% 1017.8 hPa - - - -
1788043600 24.44° C 54% 1017.6 hPa - - - -
1788041798 24.44° C 54% 1017.6 hPa - - - -

* Rain since midnight (hover to see other rain measurements)
** Current wind speed in m/s (hover to see current wind gust speed)